Regional Weather Roundup
Issued by NWS Cleveland, OH

Home | Current Version | Previous Version | Graphics & Text | Print | Product List | Glossary On
Versions: 1 2 3 4 5 6 7 8 9 10 11 12 13 14 15 16 17 18 19 20 21 22 23 24 25 26 27 28 29 30 31 32 33 34 35 36 37 38 39 40 41 42 43 44 45 46 47 48 49 50
000
ASUS41 KCLE 151910
RWRCLE
OHIO REGIONAL WEATHER ROUNDUP
NATIONAL WEATHER SERVICE WILMINGTON, OH
300 PM EDT TUE APR 15 2014

NOTE: "FAIR" INDICATES FEW OR NO CLOUDS BELOW 12,000 FEET WITH NO
SIGNIFICANT WEATHER AND/OR OBSTRUCTIONS TO VISIBILITY.

OHZ001>008-015>018-024>027-034-035-043-044-152000-
   NORTHWEST OHIO

CITY           SKY/WX    TMP DP  RH WIND       PRES   REMARKS
DEFIANCE       CLOUDY    33  17  51 NW16G24   30.09R WCI  23
FINDLAY        CLOUDY    31  18  58 NW16      30.05R WCI  20
TOLEDO EXPRESS CLOUDY    31  15  52 NW13G23   30.06R WCI  21
TOLEDO METCALF CLOUDY    33  18  53 W20G26    30.06R WCI  21
LIMA           PTSUNNY   33  21  61 NW17G23   30.07R WCI  22
$$

OHZ009>014-019>023-028>033-038-089-152000-
   NORTHEAST OHIO

CITY           SKY/WX    TMP DP  RH WIND       PRES   REMARKS
CLE-HOPKINS    FLURRIES  32  23  69 NW9       30.03R WCI  24
CLE-LAKEFRONT  LGT SNOW  30  23  74 NW17      30.01R WCI  18
CUY CO. ARPT   CLOUDY   N/A N/A N/A NW17      30.00R
LORAIN-ELYRIA  FLURRIES  32  20  61 NW13G24   30.03R WCI  22
ASHTABULA      LGT SNOW  29  21  72 NW9       29.98R WCI  20
AKRON-CANTON   FLURRIES  30  25  81 NW13      29.99R WCI  20
WOOSTER        FLURRIES  30  23  75 W14       30.02R WCI  19
MANSFIELD      CLOUDY    28  21  75 W9        30.01R WCI  19
YOUNGSTOWN     LGT SNOW  29  23  78 NW14      29.93F WCI  18
$$

OHZ042-051>053-060>062-070>072-077>081-152000-
  SOUTHWEST OHIO

CITY           SKY/WX    TMP DP  RH WIND       PRES   REMARKS
CINC-COVINGTON FLURRIES  37  21  52 N17       30.09R
CINC-LUNKEN    CLOUDY    37  20  50 NW17G23   30.12R
HAMILTON       CLOUDY    40  21  46 W13G20    30.12R
DAYTON         CLOUDY    35  20  54 NW18G24   30.09S WCI  24
WRIGHT-PAT AFB FLURRIES  34  19  54 NW12G25   30.08S WCI  25
DAYTON GENERAL CLOUDY    35  20  54 NW14G22   30.08R WCI  26
WILMINGTON       N/A     37  21  52 NW20G28   30.06R
$$

OHZ036-037-039>041-045>050-054>059-063>069-073>076-082>088-152000-
  CENTRAL AND SOUTHEAST OHIO

CITY           SKY/WX    TMP DP  RH WIND       PRES   REMARKS
COLUMBUS       CLOUDY    36  25  64 NW18G25   30.04S
OSU AIRPORT    CLOUDY    34  22  61 N15G25    30.05R WCI  24
BOLTON FIELD   CLOUDY    34  21  60 NW16G25   30.05R WCI  23
RICKENBACK AFB PTSUNNY   37  18  45 NW18G25   30.04S
NEWARK         CLOUDY    33  21  61 NW14G22   30.03S WCI  23
MARION         CLOUDY    30  18  60 NW16G23   30.05R WCI  19
LANCASTER      CLOUDY    35  22  58 NW15G24   30.04R WCI  25
ZANESVILLE     CLOUDY    31  24  75 NW14G25   30.01R WCI  21
NEW PHILLY     CLOUDY    30  23  75 NW13G22   30.00R WCI  20
$$



USA.gov is the U.S. government's official web portal to all federal, state and local government web resources and services.